Regional Weather Roundup
Issued by NWS

Home | Current Version | Previous Version | Graphics & Text | Print | Product List | Glossary Off
Versions: 1 2 3 4 5 6 7 8 9 10 11 12 13 14 15 16 17 18 19 20 21 22 23 24 25 26 27 28 29 30 31 32 33 34 35 36 37 38 39 40 41 42 43 44 45 46 47 48 49 50

572
ASUS43 KLSX 221607
RWRMO

WEATHER SUMMARY FOR MISSOURI
NATIONAL WEATHER SERVICE SPRINGFIELD MO
1100 AM CDT TUE AUG 22 2017

NOTE: "FAIR" INDICATES FEW OR NO CLOUDS BELOW 12,000 FEET WITH NO
       SIGNIFICANT WEATHER AND/OR OBSTRUCTIONS TO VISIBILITY.
       CURRENT SKY AND/OR WEATHER CONDITIONS ARE NOT AVAILABLE FOR
       CHILLICOTHE AND FARMINGTON.

MOZ001>031-035>038-043-044-053-054-221700-
...NORTHERN AND WESTERN MISSOURI...

CITY           SKY/WX    TMP DP  RH WIND       PRES   REMARKS
KANSAS CTY INT PTSUNNY   74  66  76 N10       30.12R
KANSAS C DTWN  MOSUNNY   76  67  73 N12       30.10S
LEE`S SUMMIT   CLOUDY    74  68  81 MISG      30.11S
ST JOSEPH      MOSUNNY   73  68  84 N9        30.13S
CHILLICOTHE      N/A     75  66  73 VRB5      30.10R
KIRKSVILLE     SUNNY     75  66  73 NW9       30.07S

$$
MOZ066>068-077>081-088>096-101>105-221700-
...SOUTHWEST MISSOURI...

CITY           SKY/WX    TMP DP  RH WIND       PRES   REMARKS
SPRINGFIELD    CLOUDY    67  67 100 S3        30.11S
JOPLIN         PTSUNNY   74  71  91 SE7       30.10R
BRANSON        CLOUDY    68  66  94 S7        30.12F

$$
MOZ032>034-039>042-045>050-055>058-069>072-221700-
...CENTRAL MISSOURI...

CITY           SKY/WX    TMP DP  RH WIND       PRES   REMARKS
COLUMBIA       CLOUDY    71  70  96 N16       30.07R
JEFFERSON CITY CLOUDY    73  72  96 W12       30.06R
ROLLA          CLOUDY    72  70  93 W14G22    30.09R
SEDALIA        PTSUNNY   75  69  81 NW8       30.10R
WHITEMAN AFB   PTSUNNY   70  70 100 N12       30.09R
WARRENSBURG    PTSUNNY   70  64  83 NW5       30.10R
OSAGE BEACH    CLOUDY    72  70  93 W13       30.10R

$$
MOZ051-052-059>065-221700-
...EAST CENTRAL MISSOURI...

CITY           SKY/WX    TMP DP  RH WIND       PRES   REMARKS
ST LOUIS INTL  CLOUDY    74  72  93 NW9       30.02R
SPIRIT OF STL  CLOUDY    76  72  87 NW10      30.02R
ST CHARLES     CLOUDY    73  71  93 NW6       30.01R

$$
MOZ072>076-082>087-097>100-106>115-221700-
...SOUTH CENTRAL AND SOUTHEAST MISSOURI...

CITY           SKY/WX    TMP DP  RH WIND       PRES   REMARKS
CAPE GIRARDEAU CLOUDY    84  75  74 SW10      29.97F HX  92
FARMINGTON     CLOUDY    74  71  91 NW12      30.03R
POPLAR BLUFF   PTSUNNY   83  76  79 SW10      29.98F HX  91
WEST PLAINS    CLOUDY    75  66  73 NW10      30.08R

$$



USA.gov is the U.S. government's official web portal to all federal, state and local government web resources and services.